KASW Airport (Warsaw Muni) Information

FAA: ASW - ICAO: KASW

KASW Airport Location

State Indiana
County Kosciusko
City Warsaw
KASW Airport is 2 miles north of Warsaw, IN.
Latitude 41-16-28.9000N
Longitude 085-50-24.3000W
Elevation 849ft

KASW Airport METARs

METAR KASW 072055Z AUTO 31006KT 10SM OVC022 07/03 A3026 RMK AO2 T00800036
Altimeter 30.26"
Temperature 8.0°C (46.4°F)
Wind 310° at 6KT
Clouds overcast at 2,200ft
Visibility 10.0mi
Time observed: 2022-12-07T20:55:00Z

KASW Airport Details

Status Operational
Activation September 1947
Ownership Public
Usage Public
Chart CHICAGO
ATC on-site No
Beacon schedule sunset-sunrise
Beacon color clear green

KASW Airport Contacts

Owner WARSAW BOAC
Owner address 3000 AIRPORT DR, WARSAW, IN 46582
Owner phone 574-269-1337
Manager N/A
Manager address N/A, N/A
Manager phone N/A

KASW Airport (Warsaw Muni) Radio Frequencies

KASW (Airport) Radio Frequencies

UNICOM 122.7
Common traffic advisory frequency (CTAF) 122.7